Tracking 27420 objects as of 28-May-2023
HD Live streaming from Space Station
objects crossing your sky now

STARLINK-30083

Track STARLINK-30083 now!
10-day predictions
STARLINK-30083 is classified as:


NORAD ID: 56295
Int'l Code: 2023-056K
Perigee: 351.5 km
Apogee: 353.0 km
Inclination: 43.0 °
Period: 91.4 minutes
Semi major axis: 6723 km
RCS: Unknown
Launch date: April 19, 2023
Source: United States (US)
Launch site: AIR FORCE EASTERN TEST RANGE (AFETR)
Your satellite tracking list
Your tracking list is empty




NASA's NSSDC Master Catalog

Two Line Element Set (TLE):
1 56295U 23056K   23148.58334491 -.00494605  00000-0 -34416-2 0  9998
2 56295  42.9990 324.8323 0001100 266.5768 258.7684 15.74825264  6650
Source of the keplerian elements: AFSPC